Weather History for KMYP - August, 2014

Change the Weather History Date:

Thursday, August 21, 2014

  Actual Average Record
Temperature  
Mean Temperature 45 °F -  
Max Temperature 53 °F - - ()
Min Temperature 37 °F - - ()
Degree Days  
Heating Degree Days 20    
Moisture  
Dew Point 34 °F    
Average Humidity 69    
Maximum Humidity 93    
Minimum Humidity 38    
Precipitation  
Precipitation 0.00 in - - ()
Sea Level Pressure  
Sea Level Pressure 30.65 in    
Wind  
Wind Speed 20 mph (West)    
Max Wind Speed 26 mph    
Max Gust Speed 28 mph    
Visibility 10 miles    
Events Rain    
T = Trace of Precipitation, MM = Missing Value Source: NWS Daily Summary

Daily Weather History Graph

Daily Weather History Graph

Search for Another Location

Airport or City:

Trip Planner

Search our weather history database for the weather conditions in past years. The results will help you decide how hot, cold, wet, or windy it might be!

Date:

Astronomy

Aug. 21, 2014 Rise Set
Actual Time 6:24 AM MDT 7:51 PM MDT
Civil Twilight 5:57 AM MDT 8:18 PM MDT
Nautical Twilight 5:23 AM MDT 8:52 PM MDT
Astronomical Twilight 4:48 AM MDT 9:27 PM MDT
Moon 2:58 AM MDT (8/21) 5:20 PM MDT (8/21)
Length of Visible Light 14h 21m
Length of Day
13h 26m
Waning Crescent, 13% of the Moon is Illuminated
Aug 21
Waning Crescent
Aug 25
New
Sep 2
First Quarter
Sep 8
Full
Sep 15
Last Quarter

Hourly Weather History & Observations

Time (MDT) Temp. Windchill Dew Point Humidity Pressure Visibility Wind Dir Wind Speed Gust Speed Precip Events Conditions
12:05 AM 42.8 °F 33.3 °F 37.4 °F 81% 30.60 in 10.0 mi West 24.2 mph - N/A   Clear
12:22 AM 42.8 °F 33.3 °F 37.4 °F 81% 30.60 in 10.0 mi West 24.2 mph - N/A   Clear
12:45 AM 42.8 °F 34.0 °F 37.4 °F 81% 30.61 in 10.0 mi West 20.7 mph - N/A   Clear
1:05 AM 41.0 °F 31.4 °F 37.4 °F 87% 30.61 in 10.0 mi West 21.9 mph - N/A   Clear
1:23 AM 41.0 °F 31.6 °F 37.4 °F 87% 30.61 in 10.0 mi West 20.7 mph - N/A   Clear
1:45 AM 41.0 °F 31.9 °F 35.6 °F 81% 30.61 in 10.0 mi West 19.6 mph - N/A   Clear
2:25 AM 39.2 °F 29.3 °F 35.6 °F 87% 30.61 in 10.0 mi West 20.7 mph - N/A   Scattered Clouds
2:42 AM 39.2 °F 29.0 °F 35.6 °F 87% 30.61 in 10.0 mi West 21.9 mph - N/A   Clear
3:05 AM 41.0 °F 31.6 °F 33.8 °F 76% 30.60 in 10.0 mi West 20.7 mph - N/A   Clear
3:21 AM 39.2 °F 28.7 °F 33.8 °F 81% 30.60 in 10.0 mi West 23.0 mph - N/A   Clear
3:44 AM 37.4 °F 26.1 °F 35.6 °F 93% 30.60 in 10.0 mi West 24.2 mph - N/A   Clear
5:00 AM 37.4 °F 25.6 °F 35.6 °F 93% 30.60 in 10.0 mi West 26.5 mph - N/A   Clear
5:09 AM 37.4 °F 25.9 °F 35.6 °F 93% 30.60 in 10.0 mi West 25.3 mph - N/A   Clear
5:39 AM 37.4 °F 26.6 °F 35.6 °F 93% 30.61 in 10.0 mi West 21.9 mph - N/A   Clear
6:45 AM 37.4 °F 26.4 °F 35.6 °F 93% 30.62 in 10.0 mi West 23.0 mph - N/A   Clear
7:18 AM 37.4 °F 26.1 °F 35.6 °F 93% 30.62 in 10.0 mi West 24.2 mph - N/A   Clear
7:40 AM 37.4 °F 26.9 °F 35.6 °F 93% 30.64 in 10.0 mi West 20.7 mph - N/A   Clear
8:49 AM 39.2 °F 29.3 °F 35.6 °F 87% 30.64 in 10.0 mi West 20.7 mph - N/A   Clear
9:21 AM 41.0 °F 31.6 °F 35.6 °F 81% 30.65 in 10.0 mi West 20.7 mph - N/A   Clear
9:45 AM 41.0 °F 31.9 °F 35.6 °F 81% 30.66 in 10.0 mi West 19.6 mph - N/A   Clear
10:03 AM 41.0 °F 32.5 °F 35.6 °F 81% 30.66 in 10.0 mi West 17.3 mph - N/A   Clear
10:45 AM 44.6 °F 36.6 °F 35.6 °F 71% 30.67 in 10.0 mi West 19.6 mph 25.3 mph N/A   Clear
10:51 AM 44.6 °F 37.4 °F 35.6 °F 71% 30.67 in 10.0 mi West 16.1 mph 25.3 mph N/A   Clear
12:04 PM 50.0 °F - 35.6 °F 58% 30.68 in 10.0 mi WSW 17.3 mph 25.3 mph N/A   Clear
12:22 PM 51.8 °F - 33.8 °F 50% 30.68 in 10.0 mi SW 15.0 mph 21.9 mph N/A   Clear
12:44 PM 51.8 °F - 32.0 °F 47% 30.68 in 10.0 mi WSW 18.4 mph 26.5 mph N/A   Clear
1:41 PM 53.6 °F - 32.0 °F 44% 30.69 in 10.0 mi SW 16.1 mph - N/A   Unknown
2:27 PM 53.6 °F - 30.2 °F 41% 30.69 in 10.0 mi WSW 20.7 mph 27.6 mph N/A   Clear
4:21 PM 53.6 °F - 28.4 °F 38% 30.69 in 10.0 mi West 10.4 mph - N/A   Mostly Cloudy
4:35 PM 51.8 °F - 28.4 °F 41% 30.68 in 10.0 mi West 20.7 mph - N/A   Overcast
4:49 PM 53.6 °F - 28.4 °F 38% 30.68 in 10.0 mi WSW 13.8 mph 24.2 mph N/A   Overcast
5:08 PM 53.6 °F - 30.2 °F 41% 30.69 in 10.0 mi West 12.7 mph 17.3 mph N/A   Overcast
6:12 PM 51.8 °F - 30.2 °F 44% 30.69 in 10.0 mi WSW 15.0 mph - N/A   Overcast
6:44 PM 50.0 °F - 30.2 °F 47% 30.69 in 10.0 mi SW 17.3 mph 20.7 mph N/A   Overcast
7:02 PM 50.0 °F - 30.2 °F 47% 30.69 in 10.0 mi West 11.5 mph 17.3 mph N/A Rain Light Rain
7:18 PM 50.0 °F - 30.2 °F 47% 30.69 in 10.0 mi WSW 15.0 mph - N/A   Overcast
7:37 PM 50.0 °F - 32.0 °F 50% 30.68 in 10.0 mi West 13.8 mph 23.0 mph N/A Rain Light Rain
9:41 PM 44.6 °F 39.7 °F 32.0 °F 61% 30.70 in 10.0 mi WSW 9.2 mph - N/A   Overcast
10:14 PM 44.6 °F 40.7 °F 32.0 °F 61% 30.70 in 10.0 mi WSW 6.9 mph - N/A   Mostly Cloudy
11:03 PM 48.2 °F - 32.0 °F 54% 30.69 in 10.0 mi ESE 8.1 mph - N/A   Scattered Clouds
11:19 PM 48.2 °F - 32.0 °F 54% 30.69 in 10.0 mi ESE 8.1 mph - N/A   Mostly Cloudy